Tracking 35331 objects as of 15-Sep-2026
HD Live streaming from Space Station
objects crossing your sky now

STARLINK-36817

Track STARLINK-36817 now!
10-day predictions
STARLINK-36817 is classified as:


NORAD ID: 67882
Int'l Code: 2026-035D
Launch date: February 21, 2026
Source: United States (US)
Launch site: AIR FORCE WESTERN TEST RANGE (AFWTR)
Your satellite tracking list
Your tracking list is empty




NASA's NSSDC Master Catalog

Two Line Element Set (TLE):
1 67882U 26035D   26258.09453576  .00025810  00000-0  79872-3 0  9991
2 67882  97.2848 190.0059 0001110  97.7068 262.4301 15.33458809 33016
Source of the keplerian elements: AFSPC